FW4407 Weather Reports


Display with metric or nautical units.
time (UTC)temp
F
wind
direction
speed
MPH
gust
MPH
rain 1hr
in
rain 24hr
in
rain mn
in
humidity
%
barometer
mb
20260506025517 56 0.0 0.0 0.00 0.00 0.00 72 1014.2
20260506024522 56 0.0 0.0 0.00 0.00 0.00 71 1014.3
20260506023528 56 0.0 0.0 0.00 0.00 0.00 70 1014.3
20260506022532 56 0.0 0.0 0.00 0.00 0.00 70 1014.4
20260506021540 56 0.0 0.0 0.00 0.00 0.00 70 1014.3
20260506020546 56 0.0 0.0 0.00 0.00 0.00 70 1014.4
20260506015531 57 0.0 0.0 0.00 0.00 0.00 69 1014.5
20260506014519 57 0.0 0.0 0.00 0.00 0.00 69 1014.4
20260506013524 57 0.0 0.0 0.00 0.00 0.00 68 1014.6
20260506012528 57 0.0 0.0 0.00 0.00 0.00 68 1014.8
20260506011517 57 0.0 0.0 0.00 0.00 0.00 67 1014.6
20260506010521 57 0.0 0.0 0.00 0.00 0.00 67 1014.6
20260506005526 57 0.0 0.0 0.00 0.00 0.00 67 1014.6
20260506004552 58 0.0 0.0 0.00 0.00 0.00 67 1014.7
20260506003519 58 0.0 0.0 0.00 0.00 0.00 67 1014.6
20260506002525 58 0.0 0.0 0.00 0.00 0.00 66 1014.8
20260506001530 58 0.0 0.0 0.00 0.00 0.00 66 1014.8
20260506000517 59 0.0 0.0 0.00 0.00 0.00 67 1014.8
20260505235542 60 0.0 0.0 0.00 0.00 0.00 66 1014.8
20260505234527 60 0.0 0.0 0.00 0.00 0.00 66 1014.8
20260505233515 60 0.0 0.0 0.00 0.00 0.00 64 1014.8
20260505232520 59 0.0 0.0 0.00 0.00 0.00 66 1014.9
20260505231525 59 0.0 0.0 0.00 0.00 0.00 68 1015.0
20260505230530 59 0.0 0.0 0.00 0.00 0.00 69 1015.1
20260505225518 59 0.0 0.0 0.00 0.00 0.00 68 1015.1
20260505224523 59 0.0 0.0 0.00 0.00 0.00 67 1015.1
20260505223528 59 0.0 0.0 0.00 0.00 0.00 66 1015.1
20260505222516 60 0.0 0.0 0.00 0.00 0.00 66 1015.1
20260505221521 60 0.0 0.0 0.00 0.00 0.00 66 1015.1
20260505220526 60 0.0 0.0 0.00 0.00 0.00 65 1015.1
20260505215526 60 0.0 0.0 0.00 0.00 0.00 66 1015.1
20260505214531 61 0.0 0.0 0.00 0.00 0.00 66 1015.1
20260505213519 61 0.0 0.0 0.00 0.00 0.00 64 1015.1
20260505212524 61 0.0 0.0 0.00 0.00 0.00 63 1015.1
20260505211530 61 0.0 0.0 0.00 0.00 0.00 65 1015.2
20260505210517 61 0.0 0.0 0.00 0.00 0.00 65 1015.4
20260505205522 61 0.0 0.0 0.00 0.00 0.00 65 1015.1
20260505204527 61 0.0 0.0 0.00 0.00 0.00 65 1015.2
20260505203515 61 0.0 0.0 0.00 0.00 0.00 66 1015.4
20260505202520 61 0.0 0.0 0.00 0.00 0.00 65 1015.4
20260505201525 62 359 0.0 2.0 0.00 0.00 0.00 65 1015.4
20260505200530 62 0.0 0.0 0.00 0.00 0.00 65 1015.3
20260505195538 62 0.0 0.0 0.00 0.00 0.00 64 1015.4
20260505194544 63 0.0 0.0 0.00 0.00 0.00 65 1015.4
20260505193548 64 0.0 0.0 0.00 0.00 0.00 64 1015.3
20260505192516 65 2 0.0 2.0 0.00 0.00 0.00 63 1015.4
20260505191541 65 0.0 0.0 0.00 0.00 0.00 61 1015.3
20260505190546 65 0.0 0.0 0.00 0.00 0.00 56 1015.2
20260505185531 65 0.0 0.0 0.00 0.00 0.00 56 1015.1
20260505184519 66 0.0 0.0 0.00 0.00 0.00 56 1015.1
20260505183544 66 0.0 0.0 0.00 0.00 0.00 54 1015.1
20260505182529 67 0.0 0.0 0.00 0.00 0.00 54 1015.0
20260505181518 67 0.0 0.0 0.00 0.00 0.00 53 1014.9
20260505180522 68 0.0 0.0 0.00 0.00 0.00 50 1014.7
20260505175527 68 0.0 0.0 0.00 0.00 0.00 48 1014.6
20260505174515 69 0.0 0.0 0.00 0.00 0.00 49 1014.5
20260505173520 69 0.0 0.0 0.00 0.00 0.00 50 1014.3
20260505172525 70 0.0 0.0 0.00 0.00 0.00 49 1014.2
20260505171530 71 178 0.0 5.0 0.00 0.00 0.00 48 1014.3
20260505170518 72 215 0.0 5.0 0.00 0.00 0.00 48 1014.3
20260505165523 73 144 1.0 5.0 0.00 0.00 0.00 48 1014.3
20260505164528 75 193 0.0 5.0 0.00 0.00 0.00 47 1014.5
20260505163536 76 0.0 0.0 0.00 0.00 0.00 45 1014.6
20260505162521 77 167 1.0 5.0 0.00 0.00 0.00 43 1014.3
20260505161526 77 0.0 0.0 0.00 0.00 0.00 36 1014.2
20260505160551 77 187 0.0 2.0 0.00 0.00 0.00 32 1014.1
20260505152517 79 307 1.0 5.0 0.00 0.00 0.00 32 1014.1
20260505151522 79 216 0.0 2.0 0.00 0.00 0.00 31 1014.1
20260505150527 79 246 1.0 5.0 0.00 0.00 0.00 31 1014.2
20260505140523 78 227 2.0 8.0 0.00 0.00 0.00 29 1014.3
20260505124549 79 240 3.0 10.0 0.00 0.00 0.00 29 1014.9
20260505123517 78 242 1.0 8.0 0.00 0.00 0.00 29 1015.0
20260505122522 77 235 2.0 10.0 0.00 0.00 0.00 30 1015.0
20260505121527 77 239 1.0 8.0 0.00 0.00 0.00 31 1015.0
20260505120515 77 236 2.0 8.0 0.00 0.00 0.00 32 1015.2
20260505115520 77 228 3.0 8.0 0.00 0.00 0.00 32 1015.3
20260505114525 77 223 4.0 10.0 0.00 0.00 0.00 33 1015.3
20260505113530 78 193 4.0 13.0 0.00 0.00 0.00 34 1015.4
20260505112518 78 231 4.0 13.0 0.00 0.00 0.00 36 1015.2
20260505111523 78 220 2.0 8.0 0.00 0.00 0.00 38 1015.4
20260505110528 78 239 2.0 10.0 0.00 0.00 0.00 33 1015.4
20260505101519 77 261 2.0 8.0 0.00 0.00 0.00 34 1015.6
20260505100524 76 246 3.0 10.0 0.00 0.00 0.00 34 1015.6
20260505095528 76 245 1.0 10.0 0.00 0.00 0.00 34 1015.7
20260505094517 76 253 1.0 5.0 0.00 0.00 0.00 35 1015.7
20260505093542 76 274 1.0 8.0 0.00 0.00 0.00 35 1015.8
20260505092527 76 274 1.0 5.0 0.00 0.00 0.00 35 1015.8
20260505091532 75 201 2.0 8.0 0.00 0.00 0.00 35 1015.9
20260505090519 74 248 1.0 8.0 0.00 0.00 0.00 35 1015.9
20260505085525 74 267 1.0 5.0 0.00 0.00 0.00 36 1016.0
20260505084529 73 249 2.0 5.0 0.00 0.00 0.00 37 1016.1
20260505083538 73 227 2.0 8.0 0.00 0.00 0.00 37 1016.2
20260505082523 73 234 2.0 8.0 0.00 0.00 0.00 37 1016.2
20260505081528 72 246 1.0 5.0 0.00 0.00 0.00 37 1016.2
20260505080516 72 214 1.0 5.0 0.00 0.00 0.00 39 1016.3
20260505075521 72 240 1.0 8.0 0.00 0.00 0.00 39 1016.3
20260505074526 72 223 1.0 5.0 0.00 0.00 0.00 39 1016.3
20260505073531 71 71 0.0 2.0 0.00 0.00 0.00 39 1016.3
20260505072519 71 0.0 0.0 0.00 0.00 0.00 40 1016.4
20260505071524 70 0.0 0.0 0.00 0.00 0.00 40 1016.3
20260505070528 69 0.0 0.0 0.00 0.00 0.00 42 1016.4
20260505065537 69 0.0 0.0 0.00 0.00 0.00 42 1016.2
20260505064522 68 0.0 0.0 0.00 0.00 0.00 42 1016.3
20260505063527 68 0.0 0.0 0.00 0.00 0.00 43 1016.3
20260505062532 68 0.0 0.0 0.00 0.00 0.00 45 1016.2
20260505061520 67 0.0 0.0 0.00 0.00 0.00 44 1016.2
20260505060525 65 0.0 0.0 0.00 0.00 0.00 44 1016.2
20260505055529 63 0.0 0.0 0.00 0.00 0.00 49 1016.1
20260505054517 61 0.0 0.0 0.00 0.00 0.00 54 1016.1
20260505053543 59 0.0 0.0 0.00 0.00 0.00 56 1016.1
20260505052528 59 0.0 0.0 0.00 0.00 0.00 60 1016.1
20260505051516 58 0.0 0.0 0.00 0.00 0.00 63 1015.9
20260505050541 57 0.0 0.0 0.00 0.00 0.00 63 1015.9
20260505041528 51 0.0 0.0 0.00 0.00 0.00 72 1015.6
20260505040517 50 0.0 0.0 0.00 0.00 0.00 75 1015.4
20260505035522 50 0.0 0.0 0.00 0.00 0.00 76 1015.5
20260505034526 50 0.0 0.0 0.00 0.00 0.00 76 1015.5
20260505033531 50 0.0 0.0 0.00 0.00 0.00 76 1015.4
20260505032520 49 0.0 0.0 0.00 0.00 0.00 76 1015.4
20260505031525 49 0.0 0.0 0.00 0.00 0.00 76 1015.5
20260505030549 49 0.0 0.0 0.00 0.00 0.00 77 1015.4